Temp
-10 -11 -11 -11 -11 -12 -12 -12 -12 -12 -13 -13 -13 -13 -13 -14 -14 -14 -15 -15 -15 -14 -14 -14 -13 -12 -12 -11 -11 -10 -10 -10 -11 -11 -10 -10 -10 -9 -9 -9 -9 -9 -9 -8 -8 -8 -7 -7 -8 -7 -6 -8 -7 -8
-11 -12 -12 -12 -13 -13 -13 -13 -13 -14 -14 -14 -14 -14 -15 -15 -15 -16 -16 -16 -16 -16 -16 -15 -15 -14 -14 -13 -12 -12 -11 -11 -11 -11 -11 -11 -10 -10 -10 -10 -9 -9 -9 -9 -8 -7 -7 -8 -8 -7 -7 -8 -7 -8
-12 -12 -13 -13 -13 -14 -14 -14 -14 -15 -15 -16 -16 -16 -16 -17 -17 -17 -17 -18 -18 -18 -17 -16 -16 -15 -15 -14 -14 -14 -13 -12 -12 -12 -11 -11 -11 -10 -10 -10 -10 -10 -9 -9 -8 -8 -8 -8 -7 -8 -8 -8 -8 -8
-13 -13 -14 -14 -14 -14 -15 -15 -15 -16 -16 -16 -17 -16 -17 -18 -18 -18 -19 -19 -19 -18 -18 -17 -16 -16 -16 -15 -15 -15 -15 -14 -14 -13 -13 -12 -12 -12 -11 -11 -11 -10 -10 -9 -8 -8 -8 -8 -7 -8 -8 -8 -7 -8
-14 -14 -14 -15 -15 -15 -15 -15 -16 -17 -18 -17 -17 -18 -18 -18 -18 -18 -18 -18 -18 -18 -18 -18 -17 -17 -16 -16 -16 -16 -15 -15 -14 -14 -13 -13 -13 -13 -13 -12 -11 -11 -10 -10 -9 -9 -9 -8 -8 -8 -8 -8 -8 -7
-15 -15 -15 -15 -15 -15 -15 -16 -17 -17 -17 -17 -17 -17 -18 -18 -18 -18 -18 -18 -18 -18 -18 -18 -17 -17 -16 -16 -16 -15 -15 -15 -14 -14 -14 -13 -14 -14 -13 -12 -11 -12 -11 -11 -10 -10 -10 -9 -9 -8 -8 -8 -8 -8
-15 -15 -16 -16 -16 -16 -16 -16 -16 -17 -17 -17 -16 -17 -17 -17 -17 -17 -18 -17 -17 -17 -17 -17 -17 -16 -16 -16 -16 -15 -15 -15 -14 -14 -14 -14 -14 -14 -12 -11 -12 -12 -12 -12 -11 -11 -10 -9 -9 -8 -9 -8 -8 -8
-16 -16 -16 -16 -16 -16 -16 -16 -16 -16 -16 -16 -16 -16 -16 -17 -16 -17 -17 -17 -17 -17 -17 -17 -16 -16 -16 -16 -16 -15 -15 -15 -15 -14 -14 -15 -15 -14 -12 -11 -12 -13 -13 -12 -12 -11 -11 -11 -9 -9 -9 -8 -7 -8
-17 -16 -16 -16 -16 -16 -17 -16 -16 -16 -16 -16 -16 -16 -16 -16 -16 -17 -17 -17 -17 -17 -17 -17 -17 -16 -16 -16 -16 -16 -16 -16 -15 -15 -16 -15 -14 -13 -13 -14 -14 -14 -14 -13 -13 -12 -11 -11 -10 -9 -9 -8 -7 -8
-17 -16 -16 -16 -16 -16 -17 -16 -17 -16 -16 -16 -16 -16 -16 -16 -16 -16 -17 -17 -17 -17 -17 -17 -17 -17 -17 -16 -16 -16 -16 -15 -14 -15 -15 -14 -14 -15 -15 -14 -14 -14 -14 -13 -12 -12 -11 -10 -10 -10 -9 -9 -8 -8
-17 -17 -16 -16 -16 -17 -16 -16 -16 -16 -16 -16 -16 -16 -16 -16 -16 -16 -16 -16 -16 -16 -16 -17 -17 -17 -17 -16 -16 -16 -15 -15 -14 -15 -15 -14 -14 -14 -14 -14 -15 -15 -15 -14 -13 -12 -11 -11 -11 -10 -9 -8 -8 -8
-17 -17 -17 -16 -16 -16 -16 -16 -16 -16 -16 -16 -16 -16 -16 -16 -16 -16 -16 -16 -16 -16 -17 -17 -17 -17 -17 -17 -16 -15 -15 -15 -15 -15 -15 -15 -15 -15 -14 -14 -13 -14 -15 -14 -12 -12 -12 -11 -11 -11 -10 -8 -8 -8
-18 -17 -17 -17 -16 -16 -16 -16 -16 -16 -16 -16 -16 -16 -16 -16 -16 -16 -17 -16 -16 -17 -17 -17 -17 -17 -16 -16 -16 -16 -15 -15 -15 -15 -15 -15 -14 -14 -14 -14 -13 -13 -13 -14 -14 -12 -12 -12 -11 -10 -10 -9 -8 -8
-18 -17 -17 -16 -16 -16 -16 -16 -16 -16 -16 -16 -16 -16 -16 -16 -16 -16 -16 -16 -16 -17 -17 -16 -16 -16 -16 -16 -16 -15 -15 -15 -15 -15 -14 -15 -15 -15 -15 -15 -15 -14 -13 -12 -13 -15 -12 -12 -11 -10 -10 -9 -9 -8
-17 -17 -17 -16 -16 -16 -16 -16 -16 -16 -16 -16 -16 -16 -16 -16 -16 -16 -16 -16 -16 -16 -16 -16 -15 -15 -15 -15 -16 -16 -15 -15 -15 -16 -15 -15 -15 -15 -16 -17 -17 -17 -15 -13 -13 -14 -14 -12 -11 -11 -10 -9 -9 -9
-17 -17 -17 -16 -16 -16 -16 -16 -16 -16 -16 -16 -16 -16 -16 -16 -16 -16 -16 -16 -16 -16 -16 -15 -16 -15 -15 -15 -15 -15 -16 -16 -16 -15 -15 -15 -15 -16 -17 -18 -19 -19 -16 -15 -13 -15 -14 -12 -12 -11 -10 -9 -9 -9
-17 -17 -16 -16 -16 -16 -16 -16 -16 -16 -16 -16 -16 -16 -16 -16 -16 -16 -16 -16 -16 -16 -15 -15 -15 -15 -15 -15 -15 -16 -16 -16 -16 -15 -15 -15 -15 -15 -16 -17 -19 -19 -17 -16 -16 -15 -14 -13 -12 -10 -10 -10 -9 -9
-16 -16 -16 -16 -16 -16 -15 -15 -15 -15 -15 -16 -16 -16 -16 -16 -16 -16 -15 -15 -15 -15 -15 -15 -15 -15 -14 -14 -15 -16 -16 -15 -15 -15 -15 -15 -15 -14 -15 -16 -16 -16 -16 -15 -15 -14 -13 -12 -11 -10 -10 -10 -9 -9
-16 -16 -16 -16 -15 -15 -15 -15 -15 -15 -15 -15 -16 -16 -16 -16 -15 -15 -15 -15 -15 -15 -15 -15 -15 -14 -14 -14 -14 -15 -15 -15 -15 -14 -15 -14 -14 -14 -14 -14 -14 -14 -14 -13 -12 -12 -11 -10 -11 -11 -11 -10 -9 -9
-16 -16 -16 -15 -15 -15 -15 -15 -15 -15 -15 -15 -16 -15 -16 -16 -16 -16 -16 -15 -15 -15 -15 -15 -15 -15 -15 -15 -15 -15 -15 -15 -15 -14 -14 -13 -14 -13 -13 -14 -14 -13 -13 -12 -11 -11 -10 -11 -12 -11 -11 -10 -10 -9
-15 -15 -15 -15 -15 -15 -15 -15 -15 -15 -15 -15 -16 -16 -16 -16 -15 -15 -15 -15 -15 -15 -15 -15 -15 -15 -14 -14 -15 -15 -15 -14 -14 -14 -14 -13 -12 -12 -13 -14 -11 -11 -11 -11 -11 -12 -11 -11 -11 -10 -10 -10 -10 -9
-15 -15 -15 -15 -15 -15 -15 -15 -15 -15 -15 -15 -16 -15 -15 -15 -15 -15 -15 -15 -15 -15 -15 -15 -15 -15 -15 -15 -14 -14 -14 -15 -14 -14 -14 -13 -13 -12 -13 -13 -12 -11 -11 -11 -10 -11 -11 -11 -10 -10 -10 -10 -10 -10
-15 -15 -15 -15 -15 -15 -15 -15 -16 -16 -16 -16 -16 -15 -15 -16 -16 -16 -15 -16 -15 -15 -14 -14 -14 -15 -14 -15 -14 -14 -14 -14 -14 -14 -14 -14 -14 -13 -13 -12 -12 -12 -11 -11 -11 -10 -10 -10 -11 -10 -10 -11 -11 -10
-15 -15 -15 -15 -16 -16 -16 -15 -16 -16 -16 -15 -15 -16 -16 -16 -16 -17 -16 -15 -15 -15 -15 -14 -14 -14 -14 -14 -14 -14 -14 -13 -13 -13 -13 -13 -13 -13 -13 -13 -13 -13 -12 -11 -11 -11 -10 -10 -10 -10 -10 -11 -11 -11
-15 -15 -15 -16 -16 -16 -16 -16 -16 -16 -15 -15 -16 -16 -16 -16 -16 -16 -16 -16 -16 -15 -14 -14 -14 -14 -14 -14 -13 -14 -14 -13 -14 -13 -13 -13 -13 -13 -13 -13 -12 -12 -12 -12 -12 -12 -12 -12 -11 -10 -10 -10 -10 -10
-15 -15 -15 -15 -16 -16 -16 -16 -16 -16 -15 -15 -16 -16 -16 -16 -16 -16 -16 -16 -15 -14 -14 -14 -14 -14 -14 -14 -14 -14 -14 -13 -13 -13 -13 -13 -12 -12 -12 -12 -12 -12 -11 -11 -11 -11 -10 -10 -11 -11 -11 -11 -11 -11
-15 -15 -15 -15 -15 -16 -17 -17 -16 -15 -15 -15 -16 -16 -15 -15 -15 -16 -15 -15 -15 -15 -15 -14 -14 -14 -14 -14 -14 -14 -14 -14 -14 -13 -13 -13 -13 -12 -12 -13 -13 -12 -12 -12 -11 -11 -11 -11 -10 -10 -10 -10 -10 -10
-15 -15 -15 -15 -15 -16 -16 -16 -16 -15 -15 -16 -16 -16 -15 -15 -16 -16 -15 -15 -15 -15 -14 -14 -14 -14 -14 -14 -14 -14 -13 -14 -14 -13 -13 -13 -13 -13 -13 -13 -13 -13 -13 -12 -12 -12 -13 -12 -11 -11 -12 -11 -10 -10
-15 -15 -15 -15 -15 -14 -15 -16 -16 -16 -16 -16 -16 -15 -16 -16 -16 -16 -16 -16 -15 -14 -14 -14 -14 -14 -14 -14 -14 -14 -14 -14 -13 -13 -13 -13 -13 -14 -13 -13 -13 -13 -13 -12 -13 -12 -12 -12 -12 -12 -11 -11 -11 -11
-15 -15 -15 -15 -15 -15 -15 -15 -16 -16 -16 -15 -16 -16 -16 -15 -15 -14 -15 -15 -14 -14 -14 -14 -14 -14 -14 -14 -14 -14 -14 -14 -14 -14 -13 -13 -13 -13 -13 -13 -13 -13 -13 -13 -13 -12 -12 -12 -12 -12 -12 -12 -12 -12
-15 -15 -15 -15 -15 -15 -15 -15 -15 -16 -16 -15 -15 -15 -15 -15 -15 -15 -14 -14 -14 -14 -14 -14 -14 -14 -14 -14 -14 -14 -13 -13 -14 -14 -14 -14 -14 -14 -13 -13 -13 -13 -13 -12 -12 -12 -12 -12 -12 -12 -12 -12 -12 -11
-14 -15 -15 -15 -15 -15 -15 -15 -15 -15 -15 -16 -16 -15 -16 -15 -15 -15 -15 -15 -15 -14 -14 -14 -14 -14 -14 -13 -13 -13 -14 -14 -14 -14 -14 -14 -14 -13 -13 -13 -13 -13 -13 -13 -12 -12 -12 -12 -12 -12 -12 -12 -12 -11
-14 -15 -15 -15 -15 -15 -15 -15 -15 -15 -16 -16 -16 -16 -16 -16 -16 -16 -16 -16 -15 -15 -15 -15 -14 -14 -14 -14 -14 -14 -14 -14 -14 -14 -14 -14 -14 -14 -13 -13 -13 -13 -13 -13 -13 -13 -13 -13 -13 -12 -12 -12 -12 -12
Height
5758 5751 5745 5739 5733 5727 5720 5715 5709 5703 5698 5693 5688 5684 5680 5678 5676 5675 5675 5676 5678 5679 5681 5684 5689 5695 5699 5704 5710 5716 5721 5725 5729 5734 5739 5745 5751 5758 5765 5772 5778 5786 5791 5796 5801 5804 5810 5823 5828 5836 5839 5843 5850 5853
5745 5738 5732 5726 5720 5714 5707 5702 5696 5691 5684 5678 5673 5669 5666 5663 5662 5661 5661 5661 5662 5663 5665 5669 5673 5678 5682 5688 5694 5698 5704 5709 5714 5718 5724 5729 5735 5741 5749 5755 5762 5770 5776 5782 5790 5795 5801 5814 5820 5824 5830 5839 5845 5848
5732 5726 5720 5714 5708 5702 5696 5690 5684 5678 5671 5665 5661 5657 5654 5652 5650 5649 5648 5648 5649 5650 5652 5655 5659 5664 5668 5674 5679 5684 5688 5693 5699 5704 5709 5713 5719 5726 5730 5737 5745 5752 5761 5768 5777 5782 5790 5800 5809 5814 5820 5830 5836 5842
5719 5713 5707 5702 5696 5690 5685 5679 5673 5666 5660 5656 5653 5648 5646 5643 5642 5640 5640 5641 5641 5642 5642 5645 5647 5652 5657 5662 5667 5670 5676 5680 5685 5690 5694 5698 5704 5709 5715 5721 5727 5737 5746 5755 5762 5768 5778 5788 5795 5802 5810 5820 5828 5834
5706 5701 5696 5691 5685 5680 5675 5669 5663 5659 5653 5649 5646 5642 5640 5638 5637 5636 5634 5634 5634 5635 5636 5637 5639 5643 5649 5653 5657 5661 5665 5669 5672 5676 5681 5686 5689 5694 5697 5702 5714 5722 5731 5736 5748 5755 5761 5773 5780 5788 5797 5809 5816 5824
5694 5690 5685 5680 5675 5671 5666 5660 5656 5652 5648 5645 5642 5639 5637 5634 5633 5631 5628 5629 5629 5629 5631 5633 5635 5639 5642 5645 5648 5652 5655 5659 5663 5666 5670 5674 5676 5677 5682 5691 5705 5710 5714 5721 5731 5735 5744 5757 5766 5773 5785 5796 5805 5813
5684 5679 5674 5670 5666 5662 5657 5653 5650 5646 5643 5640 5637 5635 5633 5631 5629 5629 5628 5627 5627 5627 5628 5629 5630 5633 5636 5639 5641 5643 5646 5649 5651 5654 5658 5660 5663 5663 5671 5683 5693 5696 5700 5704 5709 5715 5728 5742 5749 5758 5770 5782 5792 5801
5672 5669 5665 5661 5657 5653 5649 5646 5644 5640 5637 5635 5632 5630 5629 5627 5626 5626 5625 5624 5624 5623 5623 5624 5626 5628 5630 5632 5635 5637 5639 5641 5643 5645 5648 5650 5651 5654 5662 5677 5680 5681 5683 5686 5692 5698 5710 5720 5730 5744 5755 5767 5779 5790
5662 5659 5655 5652 5649 5645 5643 5640 5638 5634 5632 5631 5629 5627 5626 5625 5624 5623 5621 5620 5619 5619 5618 5618 5621 5623 5625 5627 5629 5630 5632 5634 5636 5637 5638 5639 5641 5645 5658 5652 5653 5656 5659 5664 5667 5675 5689 5704 5713 5727 5739 5753 5766 5777
5652 5649 5647 5644 5641 5639 5637 5634 5633 5630 5629 5628 5626 5624 5623 5623 5621 5620 5617 5616 5614 5614 5614 5615 5617 5619 5621 5622 5623 5626 5627 5627 5628 5631 5627 5628 5633 5635 5631 5630 5634 5638 5642 5644 5654 5666 5680 5690 5701 5713 5726 5739 5753 5766
5642 5640 5638 5636 5635 5634 5631 5630 5628 5627 5626 5625 5623 5622 5621 5619 5618 5615 5613 5611 5611 5611 5612 5613 5615 5616 5618 5619 5619 5620 5619 5620 5621 5621 5618 5618 5620 5617 5617 5617 5616 5619 5619 5627 5636 5649 5662 5673 5686 5698 5713 5727 5741 5755
5632 5631 5630 5629 5628 5628 5627 5625 5624 5624 5623 5623 5621 5620 5618 5616 5614 5613 5611 5610 5610 5611 5610 5610 5611 5613 5614 5614 5616 5617 5615 5613 5612 5612 5610 5611 5608 5605 5602 5599 5597 5597 5600 5605 5619 5635 5643 5659 5674 5685 5700 5716 5731 5744
5623 5623 5624 5623 5623 5623 5623 5622 5621 5622 5622 5620 5619 5617 5615 5614 5613 5611 5610 5609 5610 5609 5609 5609 5610 5611 5611 5611 5612 5610 5610 5610 5607 5605 5601 5598 5592 5586 5580 5579 5579 5577 5578 5584 5593 5611 5625 5643 5658 5674 5690 5706 5718 5732
5618 5619 5619 5620 5620 5620 5620 5620 5620 5620 5619 5618 5617 5615 5614 5613 5612 5610 5609 5609 5609 5608 5608 5607 5608 5609 5609 5608 5607 5606 5605 5602 5597 5592 5588 5581 5574 5563 5558 5552 5544 5542 5545 5557 5569 5587 5606 5628 5649 5665 5681 5694 5709 5724
5616 5617 5617 5619 5619 5619 5619 5619 5620 5619 5617 5616 5615 5614 5613 5611 5611 5609 5608 5608 5608 5607 5607 5606 5607 5607 5606 5605 5603 5601 5598 5595 5589 5583 5576 5570 5561 5543 5540 5530 5516 5506 5505 5521 5543 5566 5590 5617 5638 5657 5670 5684 5700 5717
5616 5617 5618 5619 5620 5620 5621 5620 5619 5618 5616 5615 5614 5613 5611 5610 5609 5608 5607 5607 5607 5606 5606 5605 5605 5605 5605 5603 5602 5597 5594 5590 5586 5578 5572 5563 5552 5534 5527 5519 5505 5497 5496 5510 5535 5556 5582 5612 5632 5647 5661 5679 5696 5711
5618 5619 5620 5621 5622 5622 5622 5621 5619 5618 5617 5616 5615 5613 5611 5609 5608 5607 5605 5605 5605 5605 5605 5604 5604 5603 5602 5600 5599 5594 5590 5586 5582 5577 5570 5559 5550 5543 5533 5521 5512 5504 5509 5524 5542 5565 5589 5607 5625 5646 5664 5676 5689 5701
5623 5623 5624 5625 5625 5625 5624 5623 5622 5620 5618 5617 5615 5613 5611 5608 5607 5605 5604 5604 5603 5602 5602 5602 5601 5601 5598 5598 5597 5590 5586 5582 5577 5572 5567 5560 5554 5552 5546 5540 5535 5533 5537 5548 5564 5580 5599 5617 5633 5647 5658 5672 5684 5697
5627 5628 5628 5628 5628 5628 5627 5626 5625 5622 5620 5617 5615 5612 5610 5608 5607 5605 5604 5603 5602 5601 5600 5599 5598 5597 5596 5594 5594 5588 5583 5582 5578 5574 5570 5562 5557 5561 5561 5560 5560 5563 5569 5575 5584 5599 5610 5614 5634 5647 5660 5673 5684 5694
5632 5633 5633 5632 5632 5631 5630 5629 5627 5625 5622 5619 5617 5614 5612 5611 5609 5607 5606 5604 5603 5601 5599 5598 5596 5595 5593 5593 5590 5585 5582 5582 5580 5579 5574 5573 5573 5571 5573 5576 5577 5585 5588 5588 5595 5604 5613 5628 5639 5651 5663 5674 5682 5692
5638 5638 5637 5636 5636 5634 5633 5631 5629 5626 5624 5621 5619 5616 5614 5612 5610 5608 5606 5605 5604 5602 5600 5597 5595 5593 5592 5592 5589 5584 5584 5584 5583 5583 5583 5579 5578 5582 5584 5587 5578 5595 5604 5606 5611 5621 5629 5638 5645 5656 5667 5674 5683 5691
5643 5643 5642 5641 5639 5637 5635 5633 5630 5627 5624 5622 5619 5616 5614 5612 5609 5608 5606 5604 5602 5600 5597 5595 5592 5593 5593 5591 5589 5586 5585 5585 5586 5588 5590 5589 5589 5591 5593 5594 5596 5600 5597 5608 5619 5629 5635 5644 5651 5659 5667 5673 5679 5686
5649 5648 5647 5645 5643 5639 5637 5633 5630 5626 5623 5620 5618 5615 5613 5611 5609 5607 5605 5602 5600 5598 5595 5593 5592 5592 5592 5590 5589 5589 5588 5587 5590 5592 5593 5595 5596 5599 5602 5604 5604 5607 5615 5619 5624 5626 5631 5637 5649 5657 5664 5672 5677 5684
5655 5654 5651 5648 5646 5642 5639 5634 5631 5628 5625 5621 5619 5617 5615 5613 5611 5607 5605 5602 5600 5597 5595 5594 5594 5594 5594 5592 5592 5593 5593 5593 5596 5599 5601 5604 5606 5607 5608 5610 5613 5615 5617 5622 5627 5633 5634 5641 5648 5656 5661 5670 5676 5682
5662 5659 5656 5654 5651 5648 5644 5640 5636 5632 5629 5626 5623 5622 5619 5616 5612 5609 5606 5604 5601 5597 5597 5597 5598 5598 5598 5598 5598 5597 5598 5601 5603 5606 5608 5609 5609 5612 5615 5616 5619 5623 5626 5629 5633 5638 5642 5646 5650 5655 5662 5668 5674 5675
5666 5664 5662 5659 5656 5653 5648 5645 5641 5638 5636 5632 5627 5626 5624 5620 5615 5613 5609 5608 5605 5604 5603 5604 5604 5604 5605 5605 5607 5607 5608 5609 5611 5613 5614 5614 5617 5618 5618 5620 5622 5626 5629 5633 5636 5640 5644 5648 5652 5657 5660 5662 5665 5670
5672 5669 5667 5664 5661 5658 5655 5651 5649 5646 5640 5637 5635 5633 5631 5627 5623 5618 5617 5616 5615 5613 5612 5611 5612 5612 5613 5613 5614 5616 5616 5616 5617 5617 5618 5619 5620 5621 5622 5624 5626 5627 5631 5634 5637 5641 5643 5646 5649 5652 5656 5660 5664 5669
5677 5675 5673 5670 5667 5664 5662 5659 5656 5651 5648 5645 5645 5641 5635 5632 5631 5629 5626 5625 5622 5620 5620 5620 5620 5621 5622 5622 5621 5622 5623 5623 5623 5624 5624 5624 5625 5626 5627 5628 5628 5630 5631 5634 5637 5641 5644 5647 5649 5651 5654 5657 5661 5664
5683 5681 5679 5676 5673 5671 5668 5666 5662 5660 5656 5653 5652 5648 5645 5642 5640 5637 5634 5632 5631 5629 5628 5628 5630 5630 5630 5629 5629 5628 5629 5628 5629 5630 5631 5632 5633 5634 5634 5634 5635 5635 5636 5638 5638 5641 5644 5646 5648 5651 5654 5656 5659 5661
5687 5686 5685 5683 5680 5678 5676 5672 5672 5669 5666 5663 5661 5658 5656 5654 5651 5647 5643 5641 5640 5640 5639 5639 5638 5637 5636 5635 5634 5634 5633 5633 5632 5632 5633 5634 5636 5637 5637 5638 5639 5640 5640 5641 5641 5643 5646 5648 5649 5651 5653 5655 5656 5657
5691 5690 5689 5687 5686 5684 5682 5679 5678 5677 5675 5673 5671 5669 5666 5664 5662 5659 5656 5653 5650 5648 5647 5646 5644 5643 5641 5640 5638 5638 5637 5637 5637 5637 5637 5638 5637 5637 5637 5638 5639 5640 5641 5643 5644 5645 5646 5647 5648 5649 5649 5649 5650 5652
5694 5693 5693 5692 5690 5689 5687 5685 5684 5683 5681 5680 5678 5675 5673 5672 5670 5668 5665 5662 5660 5659 5657 5654 5652 5650 5648 5645 5644 5643 5642 5641 5641 5640 5640 5640 5640 5640 5640 5639 5639 5640 5640 5641 5641 5642 5643 5644 5644 5645 5646 5646 5646 5647
5696 5695 5695 5695 5694 5693 5691 5690 5689 5688 5686 5685 5683 5682 5680 5678 5676 5673 5670 5668 5667 5664 5662 5660 5659 5657 5655 5653 5651 5650 5648 5646 5645 5644 5643 5643 5642 5642 5641 5641 5641 5641 5641 5642 5642 5642 5642 5642 5642 5642 5643 5643 5643 5642
Wind_Speed
50 49 49 49 48 47 48 49 49 48 47 47 47 46 44 41 39 39 39 40 42 44 47 48 51 52 52 52 52 52 52 51 52 53 54 54 55 54 53 52 53 54 54 53 53 52 46 37 37 37 36 32 26 23
48 49 49 48 46 47 47 46 44 46 47 46 40 37 37 36 36 36 34 35 37 39 41 43 45 48 50 51 50 51 52 52 53 53 54 54 56 56 56 56 55 56 59 59 57 54 51 44 40 40 41 33 28 27
49 49 47 45 45 45 44 42 43 45 42 36 33 31 30 30 28 30 31 29 30 30 32 34 36 41 44 44 45 44 46 48 50 52 52 53 55 56 57 59 57 59 59 61 60 59 55 51 47 45 44 39 35 31
48 46 43 43 43 41 40 40 42 38 31 29 26 24 23 21 19 22 22 19 19 21 26 28 30 34 35 36 36 38 40 42 42 44 46 49 51 53 55 57 56 58 59 63 64 63 60 56 53 52 47 43 40 37
44 41 41 41 39 38 37 38 31 28 25 21 20 19 15 16 18 19 18 15 14 18 20 24 27 27 28 30 32 33 34 37 38 40 41 43 45 48 51 54 55 54 56 61 64 64 64 62 60 57 54 47 43 42
39 39 39 37 36 35 35 29 28 26 23 20 18 19 17 13 16 19 15 12 14 21 14 18 19 19 20 23 27 30 32 34 36 39 40 41 45 49 49 49 44 46 52 54 59 64 66 64 64 62 59 53 48 44
39 37 35 34 33 33 29 25 23 21 20 19 21 17 14 14 13 11 7 5 6 8 12 17 19 16 17 20 24 26 26 28 30 32 34 37 39 44 47 42 42 47 49 52 57 63 68 66 67 67 63 58 52 50
37 33 32 32 31 30 24 21 22 24 21 22 16 10 9 12 10 9 9 9 9 11 12 15 15 15 15 17 19 22 23 25 27 32 33 35 39 42 43 37 39 43 50 55 57 61 63 65 70 68 66 62 56 53
32 30 30 28 26 24 19 19 21 20 18 10 11 11 9 9 9 9 12 13 11 11 12 13 12 12 13 13 14 16 18 20 24 26 30 34 36 36 28 36 39 44 50 54 59 64 64 66 69 70 69 65 59 56
28 29 27 24 21 19 18 18 19 16 9 11 13 5 7 8 9 11 15 14 14 13 10 9 9 8 8 8 11 12 14 17 14 15 23 27 27 26 37 48 50 52 53 60 62 59 62 66 68 70 70 66 63 58
27 28 24 21 19 16 14 17 14 9 8 9 6 7 8 9 14 15 11 7 6 5 6 7 7 6 7 10 11 13 15 13 11 19 24 26 25 33 37 43 48 47 57 65 66 65 63 67 67 69 69 68 64 59
26 22 19 17 15 12 14 13 9 5 8 7 9 11 12 10 11 6 6 4 4 4 5 6 9 11 10 13 13 15 16 17 20 21 22 23 32 36 38 40 32 53 60 69 73 68 68 69 69 68 69 68 64 61
18 15 14 12 9 9 11 10 6 6 8 7 11 12 10 8 5 5 5 4 4 5 4 7 9 7 11 14 14 15 14 16 21 24 26 28 28 35 37 35 41 44 44 63 67 80 71 69 70 69 68 66 65 62
10 9 8 4 6 7 7 4 2 5 7 9 11 9 8 6 4 6 6 4 4 5 6 7 7 8 12 12 11 12 15 18 19 24 21 28 37 42 39 39 41 47 55 57 54 64 79 71 68 69 68 67 65 61
5 4 1 3 3 4 4 3 4 7 10 10 9 8 7 6 5 6 7 7 5 6 6 7 8 10 10 7 10 13 21 24 24 26 24 30 36 32 26 35 29 32 41 64 62 58 70 71 67 68 68 68 65 61
3 2 3 5 6 6 6 8 10 11 9 9 9 9 6 6 5 4 7 7 6 6 7 9 9 9 11 13 15 20 22 24 27 23 25 33 31 18 27 33 17 9 28 41 56 54 69 69 65 68 68 65 62 61
5 7 9 8 7 7 11 11 10 11 11 10 11 10 10 9 6 5 6 8 9 9 10 12 13 15 16 17 20 22 26 28 29 18 25 23 25 19 23 12 9 28 37 43 51 61 63 64 67 65 62 63 64 64
9 10 9 8 9 12 13 13 15 14 13 12 13 13 13 11 9 7 7 7 6 7 9 10 15 18 22 22 21 26 29 28 19 15 20 21 11 6 14 27 33 40 49 54 54 54 53 56 60 63 64 62 63 61
11 11 10 10 12 12 13 14 15 14 15 15 13 12 11 9 8 8 7 7 7 6 7 9 11 13 18 21 20 24 28 23 12 12 17 25 9 21 31 35 36 37 44 45 50 51 60 47 63 61 59 58 56 58
12 12 11 11 11 11 12 11 12 15 18 16 15 14 13 12 9 8 8 9 9 9 10 9 9 10 11 12 15 19 20 14 7 8 11 18 19 19 21 20 28 32 46 34 25 33 47 55 50 49 51 52 53 54
13 12 12 11 11 12 13 14 15 16 15 14 14 14 13 14 13 12 11 10 11 13 13 13 11 10 10 10 11 13 9 4 8 4 7 9 20 28 26 36 12 22 23 29 43 42 42 47 47 47 46 48 51 51
12 12 11 10 12 14 13 15 15 16 15 13 13 10 11 12 11 12 12 12 16 18 16 13 12 11 11 11 7 4 3 7 8 5 9 19 14 22 29 19 16 18 23 40 32 31 39 46 44 43 46 48 46 46
16 16 15 13 13 13 14 13 14 15 15 15 12 9 14 11 13 18 20 17 15 13 11 10 9 6 8 10 10 7 7 7 11 11 9 10 10 12 24 15 14 15 11 28 35 22 30 45 48 47 47 50 48 48
17 16 15 16 21 26 24 22 23 23 19 18 17 20 21 17 14 14 18 17 15 12 10 7 8 7 8 11 10 14 14 11 12 11 9 11 3 4 2 5 10 12 13 15 18 16 22 41 42 54 44 47 46 45
18 19 21 20 22 25 29 28 26 25 23 23 22 20 18 16 17 17 20 17 21 13 8 9 11 12 14 17 22 24 17 18 20 14 12 8 4 6 6 3 7 7 6 8 8 7 5 6 25 43 22 35 41 31
20 21 21 22 24 26 30 28 27 24 25 26 25 27 16 20 32 29 32 25 23 21 18 18 18 17 17 20 23 25 22 17 12 7 11 12 11 8 5 4 5 6 8 10 9 12 14 14 15 18 15 12 10 11
22 24 25 27 26 27 26 27 25 26 28 28 30 20 18 18 25 27 22 25 24 21 21 23 22 22 23 21 18 18 17 14 13 14 14 13 12 7 6 4 5 9 14 14 12 8 6 8 12 15 16 17 18 21
22 24 26 26 27 26 27 26 27 32 36 26 28 27 29 29 28 26 29 27 27 27 22 21 19 18 17 16 12 11 11 11 11 12 12 11 9 6 7 6 7 6 8 7 11 12 9 6 9 10 11 14 20 23
15 19 22 24 25 25 26 28 29 30 37 30 28 29 33 33 30 31 33 31 27 24 22 23 16 12 14 15 15 15 12 9 8 8 8 6 5 6 7 8 8 8 10 10 8 8 11 10 9 10 12 14 15 16
12 11 15 18 19 21 21 23 20 29 31 36 33 33 32 29 30 31 30 29 29 29 26 23 22 20 15 14 15 13 13 13 13 7 6 4 4 5 5 5 7 9 10 10 10 12 13 13 13 13 14 15 16 17
10 10 13 14 14 18 20 20 20 22 23 27 28 29 29 29 28 28 27 25 25 24 23 21 21 18 17 17 16 15 15 13 11 11 10 9 7 6 3 4 6 6 6 7 10 11 12 13 13 14 14 15 15 17
6 8 9 10 12 13 15 17 15 15 19 21 21 24 26 25 25 25 25 26 25 24 23 23 21 20 18 17 17 16 14 12 12 10 9 8 7 6 4 3 2 4 5 5 7 8 10 12 13 14 17 19 20 22
6 2 2 6 7 10 11 13 14 13 16 15 15 17 17 17 18 20 22 23 23 22 21 21 20 19 19 18 17 15 14 14 12 11 10 8 7 5 4 4 3 3 3 4 5 6 8 9 11 12 14 15 16 17
Wind_Direction
314 312 313 313 311 309 309 309 309 308 305 303 300 295 288 284 281 278 275 269 262 259 251 246 242 240 240 239 239 239 240 240 241 242 241 241 241 240 238 234 233 231 235 236 237 239 238 227 231 226 228 230 221 221
312 314 314 311 310 309 310 311 310 309 307 304 301 297 289 282 281 278 274 273 267 261 256 250 245 242 239 238 238 238 238 238 239 241 242 242 243 242 241 239 234 232 230 235 236 238 241 234 232 229 228 227 218 221
313 313 311 310 310 312 313 313 311 310 307 306 304 300 295 289 284 277 277 272 262 256 251 247 246 243 241 239 238 239 239 238 239 240 241 242 243 243 243 241 238 234 231 230 233 235 234 235 229 229 230 227 220 212
311 309 308 310 311 313 314 312 313 314 311 308 305 305 299 292 294 291 279 272 268 258 248 245 240 238 236 234 234 235 237 238 238 238 239 240 240 241 241 241 240 239 234 230 229 231 232 231 232 228 229 226 224 218
308 307 309 311 312 313 313 313 312 318 318 314 313 304 301 299 296 289 279 265 269 259 240 244 239 234 231 233 235 236 237 238 240 240 240 240 241 240 237 237 234 236 237 234 230 229 229 227 228 229 228 223 221 222
306 307 309 309 312 314 313 313 311 311 309 304 305 303 304 296 307 312 289 268 248 265 214 249 246 238 239 237 236 238 241 243 243 243 243 242 242 244 242 238 232 232 234 232 229 228 227 226 226 228 227 224 219 220
305 307 307 308 312 313 313 311 312 318 311 305 310 302 298 299 296 297 289 280 277 265 253 252 249 243 235 234 240 245 244 243 244 244 243 245 247 248 246 238 233 231 231 231 228 227 223 224 223 224 226 224 220 221
305 306 307 310 310 311 305 306 306 313 302 302 302 295 302 326 296 289 278 280 280 271 266 251 242 238 236 233 234 241 247 251 254 252 249 249 250 252 248 243 244 240 236 232 230 227 222 221 222 221 222 223 220 221
304 306 307 306 310 309 307 305 308 313 310 299 321 310 288 294 300 302 300 293 288 275 268 251 241 236 231 234 239 244 249 254 254 257 258 255 253 254 256 249 242 237 234 229 229 227 221 217 220 219 219 219 219 220
307 302 305 304 302 306 307 305 314 315 303 301 312 290 300 305 306 306 305 287 278 279 261 253 250 244 240 238 241 246 260 268 269 265 272 272 271 267 253 250 249 244 234 232 229 227 222 216 217 217 217 216 217 218
297 302 302 299 294 304 307 316 315 307 312 315 321 317 314 313 312 312 313 306 279 252 249 252 249 231 229 262 272 279 275 263 271 287 289 283 275 268 263 257 254 252 243 234 226 222 222 215 213 215 213 212 213 214
298 295 294 295 291 290 308 316 309 282 318 315 325 325 320 316 321 332 328 293 277 279 267 229 212 220 259 283 297 294 292 293 298 305 298 289 275 274 275 258 256 247 235 233 229 221 218 214 210 211 210 209 209 210
294 294 290 289 296 299 310 311 305 267 314 329 328 336 330 327 346 333 319 313 312 300 249 237 242 256 283 296 302 301 298 299 294 292 296 300 300 281 282 275 267 264 249 238 229 220 218 211 208 207 207 206 206 207
301 291 294 290 308 315 326 349 294 305 315 318 318 336 350 346 353 347 329 327 308 295 253 253 269 268 290 301 302 309 303 312 320 308 308 320 314 304 301 284 271 255 236 222 220 220 214 208 203 202 202 203 203 204
306 317 300 337 358 33 32 16 355 341 341 353 355 352 350 334 321 308 319 335 332 308 282 286 282 279 278 286 299 310 314 325 326 331 322 318 317 311 309 323 301 274 233 210 207 204 204 199 197 197 198 200 199 200
33 87 44 67 82 69 47 31 15 11 7 18 24 17 3 1 354 307 290 300 308 307 275 273 278 277 284 291 302 302 313 325 338 330 323 318 326 328 329 333 316 200 165 179 184 188 188 190 191 194 195 195 195 197
80 69 83 92 83 61 37 29 30 30 36 36 27 22 8 357 348 344 318 291 286 293 282 265 269 274 276 285 293 304 313 319 329 321 320 324 335 345 351 358 82 131 145 162 162 165 171 181 188 186 188 192 193 196
73 89 96 89 70 53 55 50 43 37 29 17 3 356 356 2 4 5 356 341 326 296 291 288 276 276 278 291 303 307 314 333 348 331 326 340 16 7 75 98 103 115 128 139 145 158 168 179 177 182 189 193 194 196
84 94 91 74 60 64 53 49 37 29 18 11 3 1 5 24 32 12 358 345 334 322 304 300 303 294 289 291 302 305 312 334 356 357 336 343 78 122 117 113 116 127 135 142 147 156 162 159 180 184 188 192 194 196
89 88 73 67 63 55 34 32 22 21 20 17 25 36 38 37 35 26 17 14 6 353 340 331 325 320 318 319 308 303 310 341 47 25 35 84 108 109 129 138 138 132 148 152 159 167 144 172 173 180 186 190 193 195
84 71 63 64 59 40 34 31 25 19 10 18 22 24 28 24 14 3 3 11 9 358 336 322 314 314 321 325 323 313 324 80 123 56 92 62 109 103 145 155 144 110 142 156 142 160 165 173 173 179 186 189 192 197
68 58 60 57 32 15 15 9 5 355 355 356 353 341 352 4 5 3 348 340 340 340 339 335 314 314 352 345 3 347 342 150 149 98 100 110 77 104 153 171 175 129 151 147 156 152 173 181 183 183 188 191 196 198
64 58 46 34 12 5 7 1 357 355 352 352 357 6 10 26 22 11 3 357 353 352 347 343 335 332 358 12 51 75 102 165 156 128 139 87 81 112 169 152 160 177 161 182 171 198 164 172 188 193 194 194 199 200
59 47 31 35 45 35 27 37 46 47 39 33 27 21 22 20 13 36 29 10 7 3 359 358 15 49 35 53 74 86 96 118 125 124 137 110 117 122 115 94 92 92 105 139 172 190 159 175 185 192 194 204 213 211
51 55 58 49 39 44 49 50 45 39 36 39 48 37 41 33 36 33 31 39 24 15 45 53 72 68 72 83 77 74 102 134 128 72 95 133 146 102 99 116 160 180 176 184 181 175 202 219 213 199 196 202 213 214
65 59 45 42 49 49 40 34 42 48 49 48 45 47 61 48 62 50 44 52 50 68 71 79 78 80 86 96 101 90 84 97 110 96 93 111 146 152 139 141 151 181 198 210 223 219 221 215 214 223 231 235 234 203
65 52 48 47 52 50 38 35 50 50 41 53 48 42 50 58 63 63 50 48 50 60 76 88 88 88 87 91 99 106 109 95 104 99 107 113 127 103 79 106 190 211 202 201 207 221 232 252 232 226 223 229 230 229
62 55 48 43 44 50 43 51 55 49 47 60 48 57 56 58 60 63 62 56 56 57 65 91 92 78 71 74 73 87 88 94 105 120 127 123 128 126 123 105 84 98 132 174 222 221 222 213 224 241 239 230 231 233
57 55 48 37 37 43 50 51 51 49 50 58 59 60 58 58 60 57 54 61 68 69 70 88 112 113 68 51 51 66 52 63 140 127 133 145 155 148 156 163 162 174 178 186 167 193 222 226 224 222 226 231 234 238
66 55 43 39 38 43 49 54 52 54 49 52 58 55 56 54 52 53 57 58 60 57 58 58 62 63 57 62 66 68 64 55 51 76 124 155 187 186 179 161 173 183 189 195 191 200 210 216 219 214 213 220 226 231
54 66 61 54 49 46 49 51 53 57 49 54 55 54 54 53 54 57 57 58 58 56 55 56 55 54 57 61 63 62 60 58 56 55 63 65 66 81 107 164 185 183 186 189 195 204 212 221 232 241 248 252 252 248
67 46 58 55 50 46 44 52 51 46 52 47 42 46 45 42 42 41 45 49 52 53 54 53 49 48 52 57 56 53 50 50 50 50 46 45 43 40 32 22 349 301 287 272 261 258 259 258 259 260 260 260 260 260
48 79 38 42 47 41 38 41 49 56 53 46 48 46 40 38 30 30 30 32 34 37 38 38 37 39 42 43 44 45 46 48 49 49 51 47 35 23 4 358 351 329 307 292 278 270 264 261 261 260 259 259 260 261